Regional Weather Roundup
Issued by NWS

Home | Current Version | Previous Version | Graphics & Text | Print | Product List | Glossary On
Versions: 1 2 3 4 5 6 7 8 9 10 11 12 13 14 15 16 17 18 19 20 21 22 23 24 25 26 27 28 29 30 31 32 33 34 35 36 37 38 39 40 41 42 43 44 45 46 47 48 49 50
000
ASUS43 KLOT 300258
RWRIL

ILLINOIS REGIONAL WEATHER ROUNDUP
NATIONAL WEATHER SERVICE CHICAGO/ROMEOVILLE IL
1000 PM CDT TUE JUL 29 2014

NOTE: "FAIR" INDICATES FEW OR NO CLOUDS BELOW 12,000 FEET WITH NO
SIGNIFICANT WEATHER AND/OR OBSTRUCTIONS TO VISIBILITY.

* THESE STATIONS ARE NOT UNDER NWS QUALITY CONTROL. THEY ALSO MAY NOT
  REPORT WEATHER SUCH AS PRECIPITATION OR FOG.

ILZ001-002-007-009-015-016-024-300400-
NORTHWEST ILLINOIS

CITY           SKY/WX    TMP DP  RH WIND       PRES   REMARKS
MOLINE         CLEAR     65  57  75 W5        30.04S
$$

ILZ003-004-008-010-011-017-018-300400-
NORTH CENTRAL ILLINOIS

CITY           SKY/WX    TMP DP  RH WIND       PRES   REMARKS
ROCKFORD       NOT AVBL
$$

ILZ005-006-012>014-019>023-300400-
NORTHEAST ILLINOIS

CITY           SKY/WX    TMP DP  RH WIND       PRES   REMARKS
CHICAGO-OHARE  MOCLDY    70  56  61 W8        30.00R
CHICAGO-MIDWAY MOCLDY    71  57  61 SW6       30.00R
AURORA         PTCLDY    64  59  83 SW3       30.02R
WAUKEGAN       RAIN      60  57  89 N9G20     30.02R FOG
DUPAGE AIRPORT PTCLDY    66  58  75 W7        30.01R
WHEELING       PTCLDY    71  55  56 N17G31    30.04R
NORTHERLY ISL    N/A     70  57  63 SW5         N/A
$$

LMZ740>746-300400-
SOUTHERN LAKE MICHIGAN

STATION/POSITION SKY/WX   TEMP    WIND        PRES    VSBY  WAVE
                          AIR SEA DIR/SP/G                  HT/PER
                          (F)     (DEG/KT/KT) (MB)    (MI)  (FT/S)
SOUTHERN BUOY              62 61  260/  8/ 12 1015.6R         0
WAUKEGAN HARBOR            66     360/ 27/ 42   N/A
HARRISON CRIB              70     190/ 11/ 14   N/A
BURNHAM HARBOR             68     180/  5/ 10   N/A
CALUMET HARBOR             70     180/  4/  5 1014.9R
MICHIGAN CITY              69     190/  5/  5   N/A
MICHIGAN CITY 6N           69 69  240/ 10/ 12   N/A           1
ST. JOSEPH                 68 68  210/  8/ 10   N/A           1
$$

ILZ025>027-034>036-040-047-049-050-058-095>099-300400-
WEST-CENTRAL ILLINOIS

CITY           SKY/WX    TMP DP  RH WIND       PRES   REMARKS
QUINCY         CLEAR     68  58  70 CALM      30.08R
$$

ILZ028>032-037-038-041>044-048-051>054-059>061-300400-
CENTRAL ILLINOIS

CITY           SKY/WX    TMP DP  RH WIND       PRES   REMARKS
PEORIA         NOT AVBL
SPRINGFIELD    CLEAR     64  60  87 W5        30.07R
TAYLORVILLE    NOT AVBL
$$

ILZ033-039-045-046-055>057-062-063-300400-
EAST-CENTRAL ILLINOIS

CITY           SKY/WX    TMP DP  RH WIND       PRES   REMARKS
CHAMPAIGN      CLEAR     61  58  90 SW5       30.06R
MATTOON        CLEAR     62  57  83 CALM      30.06S
$$

ILZ079-100>102-300400-
SOUTHWEST ILLINOIS

CITY           SKY/WX    TMP DP  RH WIND       PRES   REMARKS
CAHOKIA*       CLEAR     64  58  80 S3        30.08R
$$

ILZ064>066-069>071-074>076-080>082-084>086-088>090-092>094-300400-
SOUTH-CENTRAL ILLINOIS

CITY           SKY/WX    TMP DP  RH WIND       PRES   REMARKS
CARBONDALE     CLEAR     63  58  83 CALM      30.08R
$$

ILZ067-068-072-073-078-083-087-091-300400-
SOUTHEAST ILLINOIS

CITY           SKY/WX    TMP DP  RH WIND       PRES   REMARKS
LAWRENCEVILLE  CLEAR     63  59  87 CALM      30.07R
$$

ABBREVIATIONS USED IN REMARKS
   TC - TEMPERATURE IN CELSIUS
  WCI - WIND CHILL INDEX
   HX - HEAT INDEX
  VSB - VISIBILITY
$$



USA.gov is the U.S. government's official web portal to all federal, state and local government web resources and services.